Theta_e
303 302 302 302 302 302 302 302 302 302 302 302 302 302 302 301 301 301 301 298 301 304 306 307 308 308 309 309 309 309 309 309 309 310 311 310 310 311 311 314 313 311 311
303 302 302 302 302 302 302 302 302 301 301 301 302 302 302 302 301 301 301 301 298 298 302 306 306 306 307 308 308 308 308 308 307 309 311 309 310 309 311 312 312 311 312
302 302 302 302 302 302 301 301 302 301 301 302 301 301 301 301 302 301 301 301 301 299 298 300 304 306 305 306 307 307 307 307 308 308 309 310 309 308 310 310 311 312 312
303 303 302 302 302 301 301 301 302 302 302 302 301 302 301 301 301 302 301 301 301 301 300 298 299 303 304 305 306 306 306 306 307 307 308 308 309 309 309 311 309 309 310
303 303 303 303 302 301 302 302 301 302 301 302 302 301 301 301 301 301 301 301 301 301 302 301 298 297 299 303 305 305 305 306 306 306 307 307 307 309 309 309 309 308 308
303 303 303 303 302 302 302 302 302 302 301 301 301 301 301 302 301 302 302 302 301 302 302 301 301 301 298 298 303 304 304 304 305 306 306 307 307 308 308 309 308 308 308
303 303 303 303 303 302 302 302 302 302 302 302 301 302 302 302 301 301 301 301 301 301 301 301 301 301 301 299 297 301 302 303 305 305 306 306 306 307 308 308 308 308 308
304 304 304 304 303 303 303 302 302 302 302 302 302 302 305 303 301 301 301 301 302 302 301 301 301 301 301 301 300 299 297 301 303 304 305 305 306 306 307 306 307 308 307
304 304 304 304 304 303 303 303 303 302 303 303 302 302 305 306 303 302 301 301 301 301 301 301 301 301 300 300 300 300 298 298 301 302 304 305 305 306 306 306 306 306 306
304 304 304 304 304 304 303 303 303 303 302 303 303 301 301 302 303 304 302 301 300 301 301 301 300 300 300 300 300 299 298 296 299 302 302 304 305 305 305 305 306 306 306
305 305 304 304 304 304 304 304 303 302 302 303 303 303 302 302 301 301 303 303 302 301 300 300 300 300 300 300 300 300 299 296 300 301 302 303 304 305 305 305 305 305 305
307 305 304 304 304 304 304 304 304 303 303 303 303 303 303 303 303 302 303 302 302 301 301 300 300 300 300 300 300 299 298 296 299 301 302 302 303 303 304 304 304 304 304
308 307 306 305 304 304 304 304 304 304 303 303 303 303 303 303 303 302 302 302 303 302 301 300 300 300 300 300 300 299 297 296 299 301 301 301 302 302 303 304 303 303 303
307 307 306 305 305 304 304 304 304 304 304 303 303 303 303 303 302 302 302 302 304 303 302 300 300 300 300 300 299 298 297 296 298 300 301 302 301 301 302 303 303 302 303
306 306 305 305 305 304 304 304 304 304 303 303 303 303 303 303 303 302 302 302 302 305 305 303 301 300 300 300 299 297 296 296 299 299 299 300 301 302 302 302 303 302 302
306 306 305 305 305 304 304 304 304 303 303 303 303 303 303 303 302 302 302 302 302 302 305 302 302 300 300 299 298 297 297 296 297 298 299 299 300 301 301 301 302 302 301
307 306 306 305 305 304 304 304 304 304 304 303 303 303 303 303 303 302 302 302 302 302 304 302 302 302 300 299 299 298 298 298 297 298 299 300 300 300 301 301 301 301 301
307 306 305 305 304 304 304 304 304 304 303 304 304 303 303 303 303 302 302 302 302 302 302 303 302 302 302 300 299 299 299 298 298 298 299 299 299 299 300 301 301 301 301
306 306 305 305 305 305 305 305 304 304 304 304 304 304 304 304 303 303 303 302 302 302 302 302 302 302 302 301 299 299 299 299 299 298 298 298 299 299 299 300 301 300 300
306 306 305 304 304 304 304 305 305 304 304 304 304 304 304 304 304 304 303 303 303 302 302 302 302 302 301 301 300 298 299 299 299 298 297 297 297 298 299 300 300 300 299
305 305 304 304 304 304 304 305 305 305 305 305 305 304 304 304 303 303 303 303 303 302 302 302 302 302 301 301 300 299 297 299 299 299 298 297 296 297 298 299 299 299 298
306 305 305 304 304 304 304 303 302 304 305 305 305 305 305 304 303 303 304 304 303 304 302 302 302 303 302 301 300 299 299 299 300 298 297 296 296 297 297 297 297 297 296
307 307 306 305 306 306 306 304 302 304 305 306 305 305 305 304 302 302 303 304 305 305 305 302 302 301 302 302 300 298 298 297 297 298 296 297 296 296 296 296 296 295 295
308 308 308 307 307 308 307 305 303 304 305 306 307 307 305 305 304 303 302 303 303 303 304 305 305 303 303 302 301 299 298 298 297 296 295 296 296 296 297 297 296 296 296
309 308 308 308 307 307 306 305 304 305 306 307 307 307 306 306 305 304 303 303 304 303 302 302 302 302 303 303 302 300 297 294 294 294 295 294 295 296 297 297 295 295 291
308 307 307 307 307 306 306 305 304 305 306 306 306 305 305 304 304 304 304 304 305 304 303 302 302 302 302 302 302 303 298 296 296 294 294 293 295 296 298 296 295 293 293
Wind_Speed
6 5 5 5 5 5 5 5 5 5 6 6 6 5 5 6 5 5 4 6 3 4 5 5 5 6 6 6 6 6 7 8 8 7 9 9 9 10 8 12 10 9 8
7 7 6 6 6 6 6 6 6 6 7 7 7 7 7 7 7 7 7 7 7 5 4 3 4 5 6 7 7 6 6 7 9 7 7 8 8 9 9 10 10 9 10
9 9 8 8 7 7 7 7 7 7 8 8 9 9 9 10 10 10 10 9 9 9 7 6 6 6 7 7 7 7 7 7 9 8 7 8 8 9 9 10 9 10 10
12 10 10 9 8 8 8 8 8 8 9 9 10 11 11 11 12 13 13 13 11 10 10 9 8 9 9 9 8 7 8 8 9 8 8 9 9 8 8 9 8 9 10
14 13 12 11 10 9 9 9 9 9 10 11 12 13 13 14 14 14 15 15 14 13 11 11 11 9 9 9 10 9 9 9 9 9 9 9 9 9 9 10 8 9 9
15 15 14 14 12 12 12 11 11 11 11 12 13 15 16 16 15 15 15 16 16 15 14 12 11 10 10 9 11 11 11 11 10 9 9 9 9 9 9 9 10 10 9
17 17 16 15 15 15 14 13 13 13 13 11 11 12 14 14 15 14 13 14 16 16 15 14 13 12 11 12 11 12 13 13 12 11 10 10 10 10 10 10 10 10 10
20 18 18 17 17 16 16 16 16 14 13 11 8 8 4 6 9 10 11 13 14 15 16 16 16 15 14 12 12 15 14 14 14 13 12 11 11 11 11 11 11 11 11
20 21 21 20 18 18 19 19 19 18 16 12 13 9 4 4 5 8 10 11 12 14 15 15 17 17 17 16 16 16 16 15 16 15 14 14 13 12 11 12 12 13 12
20 22 22 21 21 20 22 21 20 20 18 18 14 18 18 12 4 5 6 10 11 13 14 15 16 18 18 19 19 20 20 19 17 16 16 16 15 15 14 13 13 14 14
21 22 23 22 23 23 24 23 21 21 21 22 20 15 14 16 17 13 9 11 11 13 15 15 16 18 19 21 20 20 20 20 18 18 17 17 17 17 16 15 14 14 15
18 21 23 25 25 25 25 24 24 24 24 23 22 20 20 12 14 16 12 19 17 18 18 19 21 20 20 20 22 23 22 20 19 18 17 17 18 18 19 18 16 15 15
18 19 20 22 24 25 25 24 23 24 25 26 25 24 24 24 22 20 19 19 16 19 15 18 20 19 20 20 20 21 22 21 19 18 18 18 19 19 20 20 18 17 16
18 16 17 19 20 21 22 23 24 26 25 26 27 27 26 25 24 24 24 20 12 18 19 17 16 18 17 18 18 19 20 21 21 19 18 19 19 19 20 21 20 18 18
19 19 18 18 17 18 20 21 23 25 24 24 26 25 27 27 25 25 25 25 22 12 12 21 16 14 16 15 16 16 20 23 21 20 20 20 21 21 21 21 22 21 19
19 19 18 18 17 18 18 19 21 21 22 23 23 24 27 27 27 27 27 27 27 25 13 23 22 19 17 18 18 20 21 24 27 26 25 24 23 23 22 22 23 23 21
18 18 18 17 16 17 17 19 21 20 22 23 24 26 29 26 27 26 26 26 27 27 20 26 28 26 23 24 23 21 22 24 28 29 30 28 26 26 24 24 24 24 23
17 17 16 16 16 16 17 19 21 21 23 25 26 27 29 25 27 28 27 28 28 28 27 26 25 26 26 25 26 25 27 26 26 27 27 28 27 27 26 25 24 25 24
16 15 16 17 17 17 18 19 21 22 24 25 26 27 28 25 28 27 27 27 26 25 25 26 25 25 26 22 22 25 26 27 27 27 26 28 27 27 26 26 24 24 24
15 14 15 18 19 18 18 18 20 22 23 25 25 27 27 27 28 26 25 25 23 23 24 27 26 24 23 21 18 19 22 24 25 22 24 24 23 26 28 27 25 24 25
15 15 16 18 18 17 19 18 18 20 22 24 26 26 26 28 28 26 24 24 26 27 25 24 23 21 22 19 21 19 20 21 24 22 20 20 22 24 28 26 25 24 24
13 14 15 16 18 17 20 23 23 21 22 24 25 24 25 25 27 29 32 34 29 24 25 23 22 21 24 22 24 22 20 18 7 15 17 21 21 20 22 20 21 22 22
12 14 14 14 17 20 22 23 22 20 22 23 23 23 22 23 25 24 25 28 30 32 34 28 27 26 25 24 23 28 27 20 20 16 14 12 12 18 20 19 22 21 22
12 13 16 15 16 21 21 20 17 17 20 22 24 25 24 24 22 20 19 19 21 22 26 30 35 37 34 29 28 32 31 30 27 24 18 8 14 16 16 15 19 20 22
11 12 16 19 17 20 19 21 17 15 19 22 22 22 23 22 21 18 19 21 21 22 24 27 31 34 32 27 30 28 21 16 10 12 22 14 11 14 13 14 15 18 20
15 14 18 16 17 18 19 21 16 15 18 18 17 17 19 22 22 18 19 20 21 28 23 25 30 31 28 30 27 28 29 22 17 7 18 17 13 11 6 11 14 13 15
Wind_Direction
267 271 275 279 283 292 301 308 312 315 313 306 301 296 290 278 276 274 273 289 308 327 343 335 339 343 336 340 342 343 344 350 350 345 357 350 348 351 348 343 354 340 340
256 267 269 269 271 274 278 289 297 301 300 300 292 285 280 274 262 258 257 263 270 268 273 292 310 323 328 322 323 323 334 340 341 335 334 348 347 345 338 343 345 343 330
254 259 264 266 266 265 272 283 289 290 291 287 284 277 275 268 258 254 248 242 250 261 259 262 274 291 300 307 309 307 304 320 327 317 334 342 343 346 336 340 339 332 339
249 254 257 261 260 260 265 268 274 279 280 280 278 276 272 268 263 257 247 239 239 236 257 259 268 278 284 285 289 295 289 300 312 310 313 323 328 330 323 322 319 324 326
246 247 251 255 252 253 256 258 263 266 272 276 278 280 274 269 264 256 251 247 238 233 237 245 256 264 266 269 268 275 276 281 293 300 300 305 312 319 322 326 332 324 317
245 244 250 251 248 249 250 251 255 257 263 271 281 282 275 267 258 249 245 241 239 240 242 243 246 256 265 262 256 261 269 268 273 284 288 288 299 304 307 317 319 320 320
244 242 246 249 245 245 248 247 249 254 259 264 282 287 277 264 254 248 242 237 234 232 235 241 248 252 258 273 266 257 264 262 262 268 275 280 288 294 300 304 305 312 314
245 242 243 245 244 246 247 243 242 246 255 247 257 284 283 247 243 234 232 234 234 235 237 241 244 248 255 260 260 260 267 257 255 258 263 268 276 288 292 296 302 300 301
246 245 244 242 244 242 244 242 237 235 244 244 236 243 268 258 316 225 245 240 235 234 239 242 246 248 252 260 265 266 270 257 250 253 260 263 268 275 282 287 293 295 294
249 249 248 242 242 241 243 242 239 236 235 244 241 242 247 262 281 296 234 249 243 241 241 247 248 249 252 260 262 257 254 260 249 248 258 262 266 270 275 282 289 293 292
254 250 248 244 242 240 242 241 239 235 235 239 242 244 245 249 251 256 277 260 248 257 252 244 245 252 255 256 256 259 256 256 247 245 254 259 264 267 270 277 284 289 289
255 254 248 245 244 243 242 242 241 239 238 239 241 241 237 232 235 238 248 263 267 267 261 256 255 253 249 248 252 249 251 252 249 249 255 258 263 264 266 270 278 283 286
258 258 252 246 245 244 243 242 241 240 238 239 240 240 241 243 247 248 254 267 270 273 272 257 252 252 255 251 248 250 255 244 238 246 254 261 263 265 264 266 272 281 284
261 260 255 252 250 247 246 244 243 244 242 241 240 240 244 245 244 244 246 257 268 265 261 257 263 255 253 251 247 247 250 242 239 245 252 258 263 265 264 265 267 275 281
265 264 260 256 254 249 245 243 243 245 244 246 247 245 244 247 246 244 243 241 245 258 258 264 248 242 240 248 250 245 245 244 242 248 259 261 263 264 265 266 265 270 277
270 269 265 261 255 250 247 244 247 249 247 247 248 247 244 243 244 244 243 242 241 248 262 255 256 254 249 245 244 246 248 250 246 253 254 260 263 262 264 265 264 266 274
273 270 268 263 257 253 247 246 246 247 246 247 244 244 247 244 242 244 243 244 244 242 251 259 261 263 254 248 250 251 249 247 250 251 252 254 259 259 257 261 263 263 270
279 277 272 266 260 256 250 247 247 246 246 246 245 246 249 246 245 244 242 242 242 244 249 261 260 263 258 250 251 253 251 250 250 250 250 253 252 254 255 255 256 258 266
281 276 274 270 265 256 252 248 247 248 249 251 252 250 251 248 247 245 243 246 248 252 256 261 266 264 264 260 256 254 255 255 254 254 252 250 249 248 250 253 252 253 260
283 277 274 273 269 263 257 254 251 252 253 253 254 255 255 251 250 251 250 251 253 252 248 246 253 255 254 253 251 257 259 256 256 256 254 251 252 249 246 248 248 248 256
289 280 279 277 276 270 268 261 258 259 260 262 259 259 259 256 251 248 246 246 240 240 242 241 246 251 246 235 229 238 248 259 259 255 253 255 255 246 245 243 243 243 246
295 289 284 284 283 276 278 282 278 263 263 262 264 263 262 263 257 249 246 247 246 251 248 246 250 247 252 246 236 230 240 247 260 258 239 248 239 240 240 234 234 235 236
293 289 289 287 288 291 293 296 291 267 265 267 270 270 269 259 256 253 254 255 254 251 250 252 258 255 261 252 238 234 233 236 243 250 219 245 234 243 247 240 238 241 249
299 299 301 299 295 301 306 306 300 272 267 266 263 262 264 266 262 257 260 260 256 254 250 249 249 256 259 263 249 243 243 250 248 240 246 255 233 232 245 240 249 252 247
300 300 303 302 297 299 302 307 307 284 271 268 269 267 264 267 267 259 256 262 264 263 260 256 260 262 261 261 257 249 229 213 230 223 239 227 225 225 240 242 244 248 231
296 298 300 301 300 305 311 314 308 288 284 286 285 278 273 268 265 260 252 258 262 260 266 269 275 277 277 273 268 262 229 218 226 206 228 198 215 208 235 230 234 228 222